Skip Page Navigation
NASA JPL Caltech
NASA Logo - Jet Propulsion Laboratory + View the NASA Portal
+ Center for Near-Earth Object Studies
JPL Home Earth Solar System Stars & Galaxies Technology
JPL Solar System Dynamics
BODIES ORBITS EPHEMERIDES TOOLS PHYSICAL DATA DISCOVERY FAQ SITE MAP
JPL Small-Body Database Browser
Search: [ help ]  
434066 (2001 WO51)
Classification: Main-belt Asteroid          SPK-ID: 2434066
Ephemeris | Orbit Diagram | Orbital Elements | Mission Design | Physical Parameters | Discovery Circumstances ]

[ show orbit diagram ]
Orbital Elements at Epoch 2459396.5 (2021-Jul-01.0) TDB
Reference: JPL 11 (heliocentric ecliptic J2000)
 Element Value Uncertainty (1-sigma)   Units 
e .2044391306421244 5.5634e-08  
a 2.430661813674772 1.2524e-08 au
q 1.933739425602092 1.3479e-07 au
i 1.879034464793975 7.8564e-06 deg
node 34.82134656919894 0.00012605 deg
peri 315.289048360788 0.00012713 deg
M 100.8124843415115 1.5632e-05 deg
tp 2459008.888145652777
(2020-Jun-08.38814565)
5.9361e-05 TDB
period 1384.156619851713
3.79
1.0697e-05
2.929e-08
d
yr
n .2600861743800116 2.0101e-09 deg/d
Q 2.927584201747452 1.5084e-08 au
  Orbit Determination Parameters
   # obs. used (total)      204  
   data-arc span      8466 days (23.18 yr)  
   first obs. used      1997-11-02  
   last obs. used      2021-01-06  
   planetary ephem.      DE441  
   SB-pert. ephem.      SB441-N16  
   condition code      0  
   norm. resid. RMS      .5877  
   source      ORB  
   producer      Otto Matic  
   solution date      2021-Apr-14 14:14:46  

Additional Information
 Earth MOID = .927483 au 
 Jupiter MOID = 2.50144 au 
 T_jup = 3.478 
[ show covariance matrix ]

Ephemeris | Orbit Diagram | Orbital Elements | Mission Design | Physical Parameters | Discovery Circumstances ]

Physical Parameter Table
Parameter Symbol Value Units Sigma Reference Notes
absolute magnitude H 17.64   n/a MPCxxxxx  

434066 (2001 WO51)          Discovered 2001-Nov-19 by LINEAR at Socorro
Reference: Last Updated: 2015-06-04
Ephemeris | Orbit Diagram | Orbital Elements | Mission Design | Physical Parameters | Discovery Circumstances ]
ABOUT SSD CREDITS/AWARDS PRIVACY/COPYRIGHT GLOSSARY LINKS
FirstGov 2021-Jul-27 16:47 UT
(server date/time)  
NASA Home Page
Site Manager:   Ryan S. Park
Webmaster  Alan B. Chamberlin